Date String (YYYY-MM-DD hh:mm:ss) UTC,Instrument flags,Ambient pressure (hPa),Sample flow (lpm),Bypass flow (lpm),Sample temperature (°C),Ambient temperature (°C),ASC tube jacket temperature (°C),LED temperature (°C),Box temperature (°C),Sample RH (%),Span deviation,Mass concentration (μg/m³),Mass concentration (μg/m³),Mass concentration (μg/m³)
DateTimeUTC,F1_M11,P_M11,Q1_M11,Q2_M11,T1_M11,T2_M11,T3_M11,T4_M11,T5_M11,U1_M11,ZSPAN_M11,X0_M11,X2_M11,X1_M11
2022-05-06 12:00:00,,0820.3,4.99,0.00,28.1,27.4,00.0,37.1,29.9,10.0,0000.0,0007.86,0003.23,0001.73
2022-05-06 12:01:00,,0820.3,5.01,0.00,28.1,27.4,00.0,37.1,29.9,09.9,0000.0,0007.77,0003.20,0001.70
2022-05-06 12:02:00,,0820.3,4.98,0.00,28.1,27.4,00.0,37.1,29.9,10.2,0000.0,0007.77,0003.23,0001.69
2022-05-06 12:03:00,,0820.3,5.01,0.00,28.1,27.4,00.0,37.1,29.9,10.5,0000.0,0007.67,0003.24,0001.67
2022-05-06 12:04:00,,0820.3,5.01,0.00,28.1,27.4,00.0,37.1,29.9,10.5,0000.0,0007.16,0003.27,0001.67
2022-05-06 12:05:00,,0820.3,4.98,0.00,28.1,27.4,00.0,37.1,29.9,10.6,0000.0,0007.58,0003.29,0001.66
2022-05-06 12:06:00,,0820.4,5.01,0.00,28.2,27.4,00.0,37.1,29.9,10.6,0000.0,0007.68,0003.32,0001.66
2022-05-06 12:07:00,,0820.3,4.99,0.00,28.2,27.5,00.0,37.1,30.0,11.2,0000.0,0007.75,0003.32,0001.67
2022-05-06 12:08:00,,0820.3,5.00,0.00,28.2,27.5,00.0,37.1,30.0,11.4,0000.0,0007.87,0003.36,0001.69
2022-05-06 12:09:00,,0820.4,5.01,0.00,28.2,27.5,00.0,37.1,30.0,11.6,0000.0,0007.97,0003.38,0001.73
2022-05-06 12:10:00,,0820.3,4.99,0.00,28.2,27.5,00.0,37.1,30.0,10.2,0000.0,0007.83,0003.33,0001.74
2022-05-06 12:11:00,,0820.4,4.99,0.00,28.2,27.5,00.0,37.1,30.0,09.9,0000.0,0007.79,0003.29,0001.73
2022-05-06 12:12:00,,0820.4,5.00,0.00,28.2,27.5,00.0,37.1,30.0,13.5,0000.0,0008.01,0003.37,0001.82
2022-05-06 12:13:00,,0820.5,5.00,0.00,28.2,27.5,00.0,37.1,30.0,16.2,0000.0,0008.48,0003.57,0002.12
2022-05-06 12:14:00,,0820.5,4.99,0.00,28.2,27.6,00.0,37.1,30.1,16.0,0000.0,0009.15,0003.83,0002.42
2022-05-06 12:15:00,,0820.6,5.01,0.00,28.3,27.6,00.0,37.2,30.1,16.8,0000.0,0011.03,0004.18,0002.80
2022-05-06 12:16:00,,0820.6,4.99,0.00,28.3,27.6,00.0,37.2,30.1,16.9,0000.0,0012.34,0004.49,0003.13
2022-05-06 12:17:00,,0820.4,5.00,0.00,28.3,27.6,00.0,37.2,30.1,16.9,0000.0,0014.47,0004.81,0003.34
2022-05-06 12:18:00,,0820.5,5.00,0.00,28.3,27.6,00.0,37.2,30.1,14.2,0000.0,0015.04,0004.98,0003.44
2022-05-06 12:19:00,,0820.5,5.01,0.00,28.3,27.6,00.0,37.2,30.1,15.3,0000.0,0015.90,0005.23,0003.55
2022-05-06 12:20:00,,0820.4,4.99,0.00,28.3,27.6,00.0,37.2,30.1,14.8,0000.0,0018.24,0005.42,0003.63
2022-05-06 12:21:00,,0820.4,5.00,0.00,28.3,27.6,00.0,37.2,30.1,15.3,0000.0,0020.53,0005.76,0003.74
2022-05-06 12:22:00,,0820.4,5.00,0.00,28.3,27.6,00.0,37.2,30.2,16.1,0000.0,0022.09,0006.12,0003.88
2022-05-06 12:23:00,,0820.4,4.98,0.00,28.3,27.6,00.0,37.2,30.2,14.0,0000.0,0023.61,0006.32,0003.94
2022-05-06 12:24:00,,0820.4,5.01,0.00,28.3,27.7,00.0,37.2,30.2,13.0,0000.0,0024.03,0006.30,0003.85
2022-05-06 12:25:00,,0820.3,5.00,0.00,28.3,27.7,00.0,37.2,30.2,12.3,0000.0,0024.66,0006.21,0003.73
2022-05-06 12:26:00,,0820.3,4.99,0.00,28.4,27.7,00.0,37.2,30.2,11.8,0000.0,0023.42,0005.99,0003.57
2022-05-06 12:27:00,,0820.3,5.01,0.00,28.4,27.6,00.0,37.3,30.2,11.5,0000.0,0022.97,0005.79,0003.39
2022-05-06 12:28:00,,0820.3,5.00,0.00,28.4,27.6,00.0,37.3,30.2,11.8,0000.0,0021.01,0005.50,0003.21
2022-05-06 12:29:00,,0820.3,5.00,0.00,28.4,27.6,00.0,37.3,30.1,12.0,0000.0,0021.25,0005.44,0003.12
2022-05-06 12:30:00,,0820.3,5.00,0.00,28.4,27.6,00.0,37.3,30.1,11.4,0000.0,0021.11,0005.23,0002.95
2022-05-06 12:31:00,,0820.4,5.01,0.00,28.4,27.6,00.0,37.3,30.1,11.6,0000.0,0019.41,0005.03,0002.79
2022-05-06 12:32:00,,0820.4,4.99,0.00,28.4,27.6,00.0,37.3,30.1,11.8,0000.0,0018.61,0004.80,0002.65
2022-05-06 12:33:00,,0820.5,5.02,0.00,28.4,27.6,00.0,37.3,30.1,12.1,0000.0,0017.34,0004.52,0002.48
2022-05-06 12:34:00,,0820.5,4.99,0.00,28.4,27.5,00.0,37.3,30.2,12.1,0000.0,0015.95,0004.27,0002.33
2022-05-06 12:35:00,,0820.4,5.01,0.00,28.4,27.6,00.0,37.3,30.2,11.5,0000.0,0015.73,0004.12,0002.27
2022-05-06 12:36:00,,0820.4,5.01,0.00,28.4,27.6,00.0,37.3,30.2,12.4,0000.0,0015.23,0004.03,0002.23
2022-05-06 12:37:00,,0820.6,4.99,0.00,28.4,27.6,00.0,37.3,30.2,11.8,0000.0,0015.67,0003.95,0002.22
2022-05-06 12:38:00,,0820.6,5.00,0.00,28.4,27.6,00.0,37.3,30.2,12.2,0000.0,0014.61,0003.91,0002.27
2022-05-06 12:39:00,,0820.5,5.00,0.00,28.4,27.6,00.0,37.3,30.2,13.3,0000.0,0015.09,0003.93,0002.33
2022-05-06 12:40:00,,0820.6,5.01,0.00,28.4,27.7,00.0,37.3,30.3,13.3,0000.0,0014.52,0003.90,0002.39
2022-05-06 12:41:00,,0820.7,4.99,0.00,28.4,27.7,00.0,37.3,30.3,13.8,0000.0,0013.97,0003.91,0002.45
2022-05-06 12:42:00,,0820.7,5.00,0.00,28.4,27.7,00.0,37.3,30.3,13.5,0000.0,0013.90,0004.00,0002.54
2022-05-06 12:43:00,,0820.6,5.00,0.00,28.4,27.7,00.0,37.3,30.3,13.1,0000.0,0012.78,0004.02,0002.59
2022-05-06 12:44:00,,0820.6,5.01,0.00,28.5,27.7,00.0,37.3,30.3,13.3,0000.0,0013.15,0004.01,0002.62
2022-05-06 12:45:00,,0820.6,4.99,0.00,28.5,27.7,00.0,37.4,30.3,13.5,0000.0,0013.62,0004.11,0002.70
2022-05-06 12:46:00,,0820.6,5.00,0.00,28.5,27.7,00.0,37.4,30.3,13.6,0000.0,0013.45,0004.17,0002.77
2022-05-06 12:47:00,,0820.6,5.00,0.00,28.5,27.8,00.0,37.4,30.3,13.4,0000.0,0012.89,0004.17,0002.85
2022-05-06 12:48:00,,0820.6,5.00,0.00,28.5,27.8,00.0,37.4,30.3,13.5,0000.0,0011.91,0004.19,0002.88
2022-05-06 12:49:00,,0820.6,5.01,0.00,28.5,27.8,00.0,37.4,30.4,12.8,0000.0,0011.90,0004.21,0002.91
2022-05-06 12:50:00,,0820.7,5.00,0.00,28.5,27.8,00.0,37.4,30.4,13.0,0000.0,0011.99,0004.20,0002.90
2022-05-06 12:51:00,,0820.8,4.98,0.00,28.5,27.8,00.0,37.4,30.4,14.5,0000.0,0012.08,0004.25,0002.91
2022-05-06 12:52:00,,0820.8,5.03,0.00,28.5,27.8,00.0,37.4,30.4,15.3,0000.0,0013.04,0004.36,0002.99
2022-05-06 12:53:00,,0820.8,4.99,0.00,28.6,27.8,00.0,37.4,30.4,15.2,0000.0,0014.85,0004.45,0003.09
2022-05-06 12:54:00,,0820.8,5.00,0.00,28.6,27.8,00.0,37.4,30.4,15.0,0000.0,0015.17,0004.53,0003.13
2022-05-06 12:55:00,,0820.7,5.01,0.00,28.6,27.8,00.0,37.4,30.4,14.3,0000.0,0014.99,0004.61,0003.17
2022-05-06 12:56:00,,0820.7,5.00,0.00,28.6,27.8,00.0,37.5,30.4,13.4,0000.0,0014.39,0004.58,0003.16
2022-05-06 12:57:00,,0820.7,5.00,0.00,28.6,27.8,00.0,37.5,30.4,13.2,0000.0,0014.05,0004.57,0003.15
2022-05-06 12:58:00,,0820.8,4.99,0.00,28.6,27.8,00.0,37.5,30.4,13.1,0000.0,0013.91,0004.52,0003.15
2022-05-06 12:59:00,,0820.8,4.99,0.00,28.6,27.8,00.0,37.5,30.4,15.6,0000.0,0013.97,0004.54,0003.17
